This is the latest recevied weather packets stored in our database for station/object WA6ODQ-13. If no packets are shown the sender has not sent any weather packets the latest 10 day(s).
| Time | Temp. | Humidity | Pressure | Rain* | Wind** | Luminosity | Snow |
|---|---|---|---|---|---|---|---|
| 1788542103 | 21.67° C | 64% | 1012.3 hPa | 0 mm | - | 440 W/m² | - |
| 1788541798 | 20.56° C | 65% | 1012.3 hPa | 0 mm | - | 425 W/m² | - |
| 1788541493 | 20.56° C | 65% | 1012.2 hPa | 0 mm | - | 410 W/m² | - |
| 1788541189 | 20.56° C | 66% | 1012.2 hPa | 0 mm | - | 394 W/m² | - |
| 1788540888 | 20.56° C | 66% | 1012 hPa | 0 mm | - | 411 W/m² | - |
| 1788540587 | 20° C | 68% | 1012.1 hPa | 0 mm | - | 449 W/m² | - |
| 1788540282 | 20.56° C | 66% | 1012.1 hPa | 0 mm | - | 209 W/m² | - |
| 1788539978 | 20° C | 68% | 1012 hPa | 0 mm | - | 402 W/m² | - |
| 1788539678 | 19.44° C | 70% | 1011.8 hPa | 0 mm | - | 302 W/m² | - |
| 1788539372 | 18.89° C | 71% | 1012 hPa | 0 mm | - | 277 W/m² | - |
| 1788539068 | 18.33° C | 73% | 1011.8 hPa | 0 mm | - | 263 W/m² | - |
| 1788538763 | 17.78° C | 75% | 1011.8 hPa | 0 mm | - | 202 W/m² | - |
| 1788538458 | 17.78° C | 75% | 1012 hPa | 0 mm | - | 167 W/m² | - |
| 1788538154 | 17.78° C | 76% | 1011.9 hPa | 0 mm | - | 109 W/m² | - |
| 1788537849 | 17.78° C | 76% | 1011.8 hPa | 0 mm | - | 89 W/m² | - |
| 1788537544 | 17.22° C | 77% | 1011.8 hPa | 0 mm | - | 98 W/m² | - |
| 1788537238 | 16.67° C | 78% | 1011.8 hPa | 0 mm | - | 88 W/m² | - |
| 1788536937 | 16.67° C | 79% | 1011.9 hPa | 0 mm | - | 72 W/m² | - |
| 1788536631 | 16.67° C | 81% | 1011.7 hPa | 0 mm | - | 58 W/m² | - |
| 1788536327 | 16.11° C | 81% | 1011.7 hPa | 0 mm | - | 43 W/m² | - |
| 1788536022 | 16.11° C | 82% | 1011.8 hPa | 0 mm | - | 38 W/m² | - |
| 1788535719 | 16.11° C | 82% | 1011.7 hPa | 0 mm | - | 37 W/m² | - |
| 1788535418 | 16.11° C | 83% | 1011.6 hPa | 0 mm | - | 36 W/m² | - |
| 1788535113 | 15.56° C | 84% | 1011.9 hPa | 0 mm | - | 35 W/m² | - |
| 1788534812 | 15.56° C | 85% | 1011.8 hPa | 0 mm | - | 35 W/m² | - |
* Rain latest hour (hover to see other rain measurements)
** Current wind speed in m/s (hover to see current wind gust speed)